Offutt Air Force Base
KOFF : now visible

Airfield :











YOU CAN JOIN US ON...

 
LOGIN :

Register | Disclaimer

   EN    FR    IT 

 









Legend :    VFR   Marginal VFR   IFR   Intensive IFR   Very Intensive IFR
Visi :
Ceiling :
>= 8 km
>= 3000ft
5 to 8 km
1000 to 3000 ft
1500m to 5 km
500 to 1000 ft
800 to 1500m
200 to 500 ft
< 800m
< 200 ft
Symbols :   Thunderstorms  Fog  Heavy snow  Heavy precipitations  Wind > 20 kt






- Airport Elevation : 1052 ft


KOFF - Offutt Air Force Base

CURRENT METAR :
  • 041456Z AUTO 07008KT 10SM CLR 01/M05 A3026 RMK AO2 SLP263 T00091051 58005 $

EXPIRED METARs :
  • 041356Z AUTO 06009KT 10SM SCT014 00/M05 A3027 RMK AO2 SLP267 T10051053 $

TAF TAF KOFF
Valid from the 04 at 10:00 until the 05 at 16:00 UTC


041000Z 0410/0516 36006KT 9999 OVC015 QNH3024INS
BECMG 0417/0418 04005KT 9999 BKN020 QNH3010INS
BECMG 0501/0502 09005KT 9999 OVC015 QNH3011INS TX08/0420Z TNM02/0410Z



MET'MAP, your aeronautical weather chart ! - Copyright ORBIFLY December 2007 - Disclaimer

ORBIFLY MET'MAP TEAM :

Programming & Development : Alexandra Zaïnal
Concept & original design : Baudouin d'Aumeries
Assistance for programming : Marc-Olivier Méhu
Technical & hardware support : Manuel Goepfert

Contact : metmap@orbifly.com




SOURCES & CREDITS :

   NOAA       Earth
Advisory